Weather in Bolshoye Chemenevo

Russia / Chuvash Republic     55°01′27″N   47°14′45″E
temp.,
°C
wind,
m/s
gust,
m/s
humid.,
%
clouds,
%
prec.,
mm/h
press.,
hPa
HPBL,
m
18 january, tue
tue1800:00−5ssw61593100 0.4 998861
03:00−4ssw61492100 0.8 998755
06:00−3ssw51495100 0.5 998777
09:00−2ssw51395100 1.2 1000754
12:00−1s51395100 0.8 1001660
15:00−1s51296100 1.5 1003730
18:000ssw51297100 0.6 1005778
21:00−1ssw51296100 1.2 1007702
19 january, wed
wed1900:00−1sw51296100 0.8 1009673
03:00−2sw41197100 1.4 1010546
06:00−3wsw379694 0.9 1011299
09:00−6nw2397100 1.4 1014158
12:00−6wnw2393100 0.1 1015249
15:00−8n119895 0.2 101610
18:00−9nnw009784 0.3 101833
21:00−16w1110096 0.3 10199
20 january, thu
thu2000:00
03:00−18sw11100100 0.1 102010
06:00−15ssw27100100 0.0 1020108
09:00
12:00−8sw41293100 0.0 1020349
15:00−8sw4138769 0.0 1021426
18:00−10ssw410906 0.0 1021253
21:00−12ssw311925 0.0 1022205
21 january, fri
fri2100:00−12ssw312895 0.0 1022226
03:00−15s28956 0.0 1023105
06:00−15s269983 0.0 102377
09:00−12sse299987 0.0 1023143
12:00−6s4119378 0.0 1023461
15:00−7sse41094100 0.0 1023377
18:00−10sse4129596 0.0 1023301
21:00−11sse41395100 0.0 1023307
22 january, sat
sat2200:00−10sse51494100 0.0 1023384
03:00−10sse51493100 0.0 1023390
06:00−10se51493100 0.0 1023385
09:00−9sse51592100 0.0 1024405
12:00−8sse51392100 0.0 1025392
15:00−8sse41293100 0.1 1026423
18:00−9se41293100 0.0 1027386
21:00−9se41294100 0.0 1027360